Location: Assche-ter-Heiden
(50.9174°N, 4.1574°E)
Time: 16:55:08
(UTC+00:00)

SL-16 R/B - Pass Details

Date: 20 January 2020
Orbit: 842 x 846 km, 71.0° (Epoch: 20 February)

Event Time Altitude Azimuth Distance (km) Brightness Sun altitude
Rises 06:13:04 0° 196° (SSW) 3,389 5.4 -12.7°
Reaches altitude 10° 06:15:31 10° 193° (SSW) 2,459 4.7 -12.3°
Maximum altitude 06:21:05 63° 114° (ESE) 943 2.8 -11.5°
Drops below altitude 10° 06:26:41 10° 35° (NE) 2,477 4.8 -10.6°
Sets 06:29:09 0° 32° (NNE) 3,417 5.5 -10.3°
